Location: Grust
(42.8833°N, 0.0333°W)
Time: 20:10:27
(UTC+00:00)

H-2A R/B - Pass Details

Date: 25 October 2020
Orbit: 733 x 837 km, 98.2° (Epoch: 23 November)

Event Time Altitude Azimuth Distance (km) Brightness Sun altitude
Exits shadow 20:01:09 - 202° (SSW) 2,908 5.1 -33.3°
Reaches altitude 10° 20:02:37 10° 210° (SSW) 2,416 4.7 -33.6°
Maximum altitude 20:07:06 27° 266° (W) 1,558 4.0 -34.4°
Drops below altitude 10° 20:11:41 10° 323° (NW) 2,457 5.2 -35.2°
Sets 20:14:26 0° 336° (NNW) 3,398 5.8 -35.7°
